METEOR 2-11 DEB, 40708

Orbit data source: Space-Track

METEOR 2-11 DEB, 40708 is space debris in LEO originally from a launch on Thu, 05 Jul 1984 UTC launched from the Plesetsk Missile And Space Complex (PKMTR). Debris objects in space refer to the collection of defunct objects orbiting the Earth. Examples of debris include non-operational satellites, rocket bodies, and fragments generated from explosions, collisions, or faulty payload assembly.

Loading next visibility...
METEOR 2-11 DEB details
Identifier
40708, 1984-072K
Orbit
LEO
Last TLE update19 hours ago
Origin
Flag of CISVVKO (CIS)
ManufacturerUnknown
MissionSpacecraft
Bus & MotorUnknown
MassUnknown
Launch date (UTC)
1984-07-05 (40 years ago)
Launch vehicleUnknown
Launch site
Plesetsk Missile And Space Complex (PKMTR)
Object type
Payload
Rocket body
Debris
Shape & HBRUnknown
Radar Cross SectionSmall (<0.1 m²)

Expand to show TLE details & history

TLE from 19 hours ago
0 METEOR 2-11 DEB
1 40708U 84072K   24360.93685463  .00004973  00000-0  36460-2 0  9993
2 40708  82.5120  84.0392 0019769  46.0910 314.1885 13.95515165498885
Epoch: 2024-12-25T22:29Z
Definitive object data (Epoch: 2024-12-25T22:29:04.24Z)
Latitude0.00007°
Longitude11.8481°
Altitude902.255 km
Speed7.406 km/s
True Right ascension05h 36m 09s
True Declination0° 00' 00"
Sunlit
Object was in full shadow at TLE epoch
Visualization TLE readout
Latitude72.52937°
Longitude166.64317°
Altitude915.068 km
Speed7.404 km/s
Apparent Right ascension06h 18m 01s
Apparent Declination44° 11' 54"
Sunlit
Object is in daylight
Visualization observer readout
Local Sidereal Time17:17:25
Azimuth349.163° N
Elevation-4.786°
Doppler factor1
Orbital elements
Apogee altitude920.905 km
Perigee altitude892.103 km
Semi-major axis7,284.641 km
Eccentricity0.0019769
Inclination82.512°
RAAN84.0392°
Arg. of periapsis46.091°
True anomaly314.02578°
Mean anomaly314.1885°
Eccentric anomaly314.10717°
Mean motion3.49085 °/min
BSTAR0.003646
Orbital period103.13 mins
Loading maneuver chart data...
Loading historical data...
Loading historical data...
Loading historical data...
Loading historical data...
Loading historical data...
Loading historical data...
Loading historical data...

METEOR 2-11 DEB Visibility forecast

Observer location: undefined°, undefined

Span
Click to sort rows by Start time (UTC) header in descending order
Start Az.
Max El. time (UTC)
Max El. Az.
Max El.
End time (UTC)
End Az.
10 mins2024-12-26 18:00:00.845Z343.642° N2024-12-26 18:05:00.845Z253.87° W41.554°2024-12-26 18:10:00.845Z187.983° SSW
8 mins2024-12-27 05:35:00.845Z140.729° SSE2024-12-27 05:39:00.845Z85.138° E27.16°2024-12-27 05:43:00.845Z33.321° NE
8 mins2024-12-27 07:19:00.845Z229.918° WSW2024-12-27 07:23:00.845Z290.504° WNW29.045°2024-12-27 07:27:00.845Z343.805° N
7 mins2024-12-27 16:23:00.845Z33.042° NE2024-12-27 16:26:00.845Z71.524° E21.067°2024-12-27 16:30:00.845Z118.144° SE
|